GW0910 Weather Reports


time (UTC)temp
C
wind
direction
speed
KPH
gust
KPH
rain 1hr
cm
rain 24hr
cm
rain mn
cm
humidity
%
barometer
mb
20260509075104 36 0.0 0.0 0.00 0.00 0.00 69 1007.9
20260509074601 36 0.0 0.0 0.00 0.00 0.00 69 1008.2
20260509074057 36 0.0 0.0 0.00 0.00 0.00 69 1008.2
20260509073554 36 0.0 0.0 0.00 0.00 0.00 69 1008.2
20260509073050 36 0.0 0.0 0.00 0.00 0.00 70 1008.2
20260509072547 36 0.0 0.0 0.00 0.00 0.00 70 1008.2
20260509072044 36 0.0 0.0 0.00 0.00 0.00 70 1008.2
20260509071541 36 0.0 0.0 0.00 0.00 0.00 70 1008.6
20260509071038 36 0.0 0.0 0.00 0.00 0.00 70 1008.6
20260509070535 36 0.0 0.0 0.00 0.00 0.00 71 1008.6
20260509070031 36 0.0 0.0 0.00 0.00 0.00 70 1008.6
20260509065527 36 0.0 0.0 0.00 0.00 0.00 70 1008.6
20260509065024 36 0.0 0.0 0.00 0.00 0.00 69 1008.6
20260509064521 36 0.0 0.0 0.00 0.00 0.00 69 1008.9
20260509064019 36 0.0 0.0 0.00 0.00 0.00 69 1008.6
20260509063514 36 0.0 0.0 0.00 0.00 0.00 68 1008.9
20260509063012 36 0.0 0.0 0.00 0.00 0.00 68 1008.9
20260509062509 36 0.0 0.0 0.00 0.00 0.00 69 1008.9
20260509062007 36 0.0 0.0 0.00 0.00 0.00 69 1008.9
20260509061504 36 0.0 0.0 0.00 0.00 0.00 68 1008.9
20260509061001 36 0.0 0.0 0.00 0.00 0.00 69 1008.9
20260509060458 36 0.0 0.0 0.00 0.00 0.00 69 1008.9
20260509055953 36 0.0 0.0 0.00 0.00 0.00 69 1009.2
20260509055449 36 0.0 0.0 0.00 0.00 0.00 69 1009.2
20260509054945 36 0.0 0.0 0.00 0.00 0.00 70 1008.9
20260509054442 36 0.0 0.0 0.00 0.00 0.00 70 1009.2
20260509053940 36 0.0 0.0 0.00 0.00 0.00 70 1009.6
20260509053438 35 0.0 0.0 0.00 0.00 0.00 70 1009.6
20260509052935 35 0.0 0.0 0.00 0.00 0.00 70 1009.6
20260509052433 35 0.0 0.0 0.00 0.00 0.00 70 1009.6
20260509051930 35 0.0 0.0 0.00 0.00 0.00 71 1009.6
20260509051428 35 0.0 0.0 0.00 0.00 0.00 71 1009.9
20260509050925 35 0.0 0.0 0.00 0.00 0.00 70 1009.9
20260509050421 35 0.0 0.0 0.00 0.00 0.00 71 1009.9
20260509045918 35 0.0 0.0 0.00 0.00 0.00 70 1009.9
20260509045415 35 0.0 0.0 0.00 0.00 0.00 71 1010.2
20260509044912 35 0.0 0.0 0.00 0.00 0.00 72 1010.2
20260509044410 35 0.0 0.0 0.00 0.00 0.00 72 1010.2
20260509043907 35 0.0 0.0 0.00 0.00 0.00 73 1010.6
20260509043402 34 0.0 0.0 0.00 0.00 0.00 73 1010.6
20260509042858 34 0.0 0.0 0.00 0.00 0.00 76 1010.9
20260509042355 33 0.0 0.0 0.00 0.00 0.00 78 1010.9
20260509041852 33 0.0 0.0 0.00 0.00 0.00 80 1010.9
20260509041349 33 0.0 0.0 0.00 0.00 0.00 80 1010.9
20260509040847 33 0.0 0.0 0.00 0.00 0.00 80 1011.3
20260509040345 33 0.0 0.0 0.00 0.00 0.00 77 1011.3
20260509035841 33 0.0 0.0 0.00 0.00 0.00 80 1011.3
20260509035338 33 0.0 0.0 0.00 0.00 0.00 81 1011.3
20260509034834 33 0.0 0.0 0.00 0.00 0.00 82 1011.3
20260509034332 33 0.0 0.0 0.00 0.00 0.00 83 1011.3
20260509033829 32 0.0 0.0 0.00 0.00 0.00 84 1011.3
20260509033326 32 0.0 0.0 0.00 0.00 0.00 84 1011.6
20260509032823 32 0.0 0.0 0.00 0.00 0.00 84 1011.6
20260509032320 32 0.0 0.0 0.00 0.00 0.00 85 1011.6
20260509031818 32 0.0 0.0 0.00 0.00 0.00 86 1011.6
20260509031315 32 0.0 0.0 0.00 0.00 0.00 86 1011.9
20260509030813 32 0.0 0.0 0.00 0.00 0.00 85 1011.6
20260509030310 32 0.0 0.0 0.00 0.00 0.00 83 1011.9
20260509025807 32 0.0 0.0 0.00 0.00 0.00 83 1011.9
20260509025306 32 0.0 0.0 0.00 0.00 0.00 84 1011.9
20260509024758 32 0.0 0.0 0.00 0.00 0.00 84 1011.9
20260509024255 32 0.0 0.0 0.00 0.00 0.00 86 1011.9
20260509023752 32 0.0 0.0 0.00 0.00 0.00 85 1011.9
20260509023249 31 0.0 0.0 0.00 0.00 0.00 85 1011.9
20260509022744 31 0.0 0.0 0.00 0.00 0.00 85 1012.3
20260509022242 32 0.0 0.0 0.00 0.00 0.00 85 1012.3
20260509021739 32 0.0 0.0 0.00 0.00 0.00 86 1012.3
20260509021236 31 0.0 0.0 0.00 0.00 0.00 86 1012.3
20260509020734 31 0.0 0.0 0.00 0.00 0.00 86 1012.6
20260509020232 31 0.0 0.0 0.00 0.00 0.00 86 1012.6
20260509015729 31 0.0 0.0 0.00 0.00 0.00 85 1012.6
20260509015228 32 0.0 0.0 0.00 0.00 0.00 85 1012.6
20260509014724 32 0.0 0.0 0.00 0.00 0.00 83 1012.6
20260509014221 32 0.0 0.0 0.00 0.00 0.00 82 1012.6
20260509013717 32 0.0 0.0 0.00 0.00 0.00 80 1012.6
20260509013213 32 0.0 0.0 0.00 0.00 0.00 80 1012.3
20260509012709 32 0.0 0.0 0.00 0.00 0.00 80 1012.6
20260509012206 32 0.0 0.0 0.00 0.00 0.00 78 1012.6
20260509011704 32 0.0 0.0 0.00 0.00 0.00 78 1012.3
20260509011201 32 0.0 0.0 0.00 0.00 0.00 78 1012.6
20260509010659 33 0.0 0.0 0.00 0.00 0.00 78 1012.6
20260509010155 32 0.0 0.0 0.00 0.00 0.00 78 1012.6
20260509005653 32 0.0 0.0 0.00 0.00 0.00 78 1012.6
20260509005149 32 0.0 0.0 0.00 0.00 0.00 78 1012.6
20260509004644 32 0.0 0.0 0.00 0.00 0.00 78 1012.6
20260509004142 32 0.0 0.0 0.00 0.00 0.00 78 1012.6
20260509003641 32 0.0 0.0 0.00 0.00 0.00 78 1013.0
20260509003138 32 0.0 0.0 0.00 0.00 0.00 78 1012.6
20260509002635 32 0.0 0.0 0.00 0.00 0.00 77 1012.6
20260509002132 32 0.0 0.0 0.00 0.00 0.00 79 1012.6
20260509001630 32 0.0 0.0 0.00 0.00 0.00 79 1012.6
20260509001125 32 0.0 0.0 0.00 0.00 0.00 79 1012.6
20260509000624 32 0.0 0.0 0.00 0.00 0.00 79 1012.6
20260509000120 32 0.0 0.0 0.00 0.00 0.00 80 1012.6
20260508235617 32 0.0 0.0 0.00 0.00 0.00 80 1012.6
20260508235114 32 0.0 0.0 0.00 0.00 0.00 80 1012.3
20260508234611 32 0.0 0.0 0.00 0.00 0.00 80 1012.3
20260508234107 32 0.0 0.0 0.00 0.00 0.00 79 1012.3
20260508233607 32 0.0 0.0 0.00 0.00 0.00 80 1012.3
20260508233104 32 0.0 0.0 0.00 0.00 0.00 81 1012.3
20260508232601 32 0.0 0.0 0.00 0.00 0.00 81 1011.9
20260508232057 32 0.0 0.0 0.00 0.00 0.00 81 1011.9
20260508231556 32 0.0 0.0 0.00 0.00 0.00 81 1011.9
20260508231052 32 0.0 0.0 0.00 0.00 0.00 81 1011.9
20260508230549 32 0.0 0.0 0.00 0.00 0.00 82 1011.9
20260508230045 31 0.0 0.0 0.00 0.00 0.00 82 1011.9
20260508225543 31 0.0 0.0 0.00 0.00 0.00 82 1011.9
20260508225039 31 0.0 0.0 0.00 0.00 0.00 82 1011.9
20260508224538 31 0.0 0.0 0.00 0.00 0.00 83 1011.6
20260508224034 31 0.0 0.0 0.00 0.00 0.00 83 1011.6
20260508223532 31 0.0 0.0 0.00 0.00 0.00 84 1011.6
20260508223029 31 0.0 0.0 0.00 0.00 0.00 84 1011.6
20260508222527 31 0.0 0.0 0.00 0.00 0.00 83 1011.3
20260508222023 31 0.0 0.0 0.00 0.00 0.00 83 1011.3
20260508221520 31 0.0 0.0 0.00 0.00 0.00 83 1011.3
20260508221015 31 0.0 0.0 0.00 0.00 0.00 83 1010.9
20260508220512 31 0.0 0.0 0.00 0.00 0.00 83 1011.3
20260508220009 31 0.0 0.0 0.00 0.00 0.00 83 1010.9
20260508215505 31 0.0 0.0 0.00 0.00 0.00 83 1010.9
20260508215002 31 0.0 0.0 0.00 0.00 0.00 83 1010.9
20260508214500 31 0.0 0.0 0.00 0.00 0.00 83 1010.9
20260508213955 31 0.0 0.0 0.00 0.00 0.00 83 1010.9
20260508213454 31 0.0 0.0 0.00 0.00 0.00 83 1010.6
20260508212948 31 0.0 0.0 0.00 0.00 0.00 83 1010.9
20260508212446 31 0.0 0.0 0.00 0.00 0.00 83 1010.9
20260508211941 31 0.0 0.0 0.00 0.00 0.00 83 1010.9
20260508211437 31 0.0 0.0 0.00 0.00 0.00 83 1010.9
20260508210934 31 0.0 0.0 0.00 0.00 0.00 83 1010.6
20260508210431 31 0.0 0.0 0.00 0.00 0.00 83 1010.6
20260508205927 31 0.0 0.0 0.00 0.00 0.00 82 1010.6
20260508205425 31 0.0 0.0 0.00 0.00 0.00 82 1010.6
20260508204921 31 0.0 0.0 0.00 0.00 0.00 82 1010.6
20260508204418 31 0.0 0.0 0.00 0.00 0.00 82 1010.6
20260508203913 31 0.0 0.0 0.00 0.00 0.00 82 1010.6
20260508203410 31 0.0 0.0 0.00 0.00 0.00 82 1010.6
20260508202906 31 0.0 0.0 0.00 0.00 0.00 82 1010.2
20260508202404 31 0.0 0.0 0.00 0.00 0.00 82 1010.2
20260508201900 31 0.0 0.0 0.00 0.00 0.00 82 1010.2
20260508201357 31 0.0 0.0 0.00 0.00 0.00 83 1010.2
20260508200853 31 0.0 0.0 0.00 0.00 0.00 82 1010.2
20260508200350 31 0.0 0.0 0.00 0.00 0.00 82 1010.2
20260508195846 31 0.0 0.0 0.00 0.00 0.00 82 1010.2
20260508195343 31 0.0 0.0 0.00 0.00 0.00 82 1010.2
20260508194839 31 0.0 0.0 0.00 0.00 0.00 82 1010.2
20260508194336 31 0.0 0.0 0.00 0.00 0.00 82 1010.2
20260508193833 31 0.0 0.0 0.00 0.00 0.00 82 1010.2
20260508193330 31 0.0 0.0 0.00 0.00 0.00 81 1010.2
20260508192827 31 0.0 0.0 0.00 0.00 0.00 81 1010.2
20260508192324 31 0.0 0.0 0.00 0.00 0.00 81 1010.2
20260508191821 31 0.0 0.0 0.00 0.00 0.00 81 1010.2
20260508191318 31 0.0 0.0 0.00 0.00 0.00 81 1010.2
20260508190815 32 0.0 0.0 0.00 0.00 0.00 81 1010.2
20260508190311 31 0.0 0.0 0.00 0.00 0.00 81 1010.2
20260508185807 31 0.0 0.0 0.00 0.00 0.00 81 1010.6
20260508185306 31 0.0 0.0 0.00 0.00 0.00 81 1010.2
20260508184802 31 0.0 0.0 0.00 0.00 0.00 81 1010.2
20260508184259 31 0.0 0.0 0.00 0.00 0.00 80 1010.2
20260508183756 31 0.0 0.0 0.00 0.00 0.00 80 1010.2
20260508183253 32 0.0 0.0 0.00 0.00 0.00 80 1010.2
20260508182749 32 0.0 0.0 0.00 0.00 0.00 80 1010.2
20260508182246 32 0.0 0.0 0.00 0.00 0.00 80 1010.6
20260508181741 32 0.0 0.0 0.00 0.00 0.00 80 1010.6
20260508181238 32 0.0 0.0 0.00 0.00 0.00 80 1010.6
20260508180735 32 0.0 0.0 0.00 0.00 0.00 80 1010.2
20260508180232 32 0.0 0.0 0.00 0.00 0.00 80 1010.6
20260508175728 32 0.0 0.0 0.00 0.00 0.00 80 1010.6
20260508175225 32 0.0 0.0 0.00 0.00 0.00 80 1010.6
20260508174723 32 0.0 0.0 0.00 0.00 0.00 80 1010.6
20260508174221 32 0.0 0.0 0.00 0.00 0.00 80 1010.6
20260508173716 32 0.0 0.0 0.00 0.00 0.00 80 1010.9
20260508173212 32 0.0 0.0 0.00 0.00 0.00 80 1010.9
20260508172710 32 0.0 0.0 0.00 0.00 0.00 80 1011.3
20260508172207 32 0.0 0.0 0.00 0.00 0.00 80 1010.9
20260508171703 32 0.0 0.0 0.00 0.00 0.00 80 1010.9
20260508171159 32 0.0 0.0 0.00 0.00 0.00 80 1011.3
20260508170656 32 0.0 0.0 0.00 0.00 0.00 80 1011.3
20260508170154 32 0.0 0.0 0.00 0.00 0.00 80 1010.9
20260508165651 32 0.0 0.0 0.00 0.00 0.00 80 1011.3
20260508165148 32 0.0 0.0 0.00 0.00 0.00 80 1011.3
20260508164644 32 0.0 0.0 0.00 0.00 0.00 80 1011.3
20260508164141 32 0.0 0.0 0.00 0.00 0.00 80 1010.9
20260508163639 32 0.0 0.0 0.00 0.00 0.00 80 1011.3
20260508163136 32 0.0 0.0 0.00 0.00 0.00 80 1011.3
20260508162631 32 0.0 0.0 0.00 0.00 0.00 80 1011.3
20260508162129 32 0.0 0.0 0.00 0.00 0.00 80 1011.3
20260508161626 32 0.0 0.0 0.00 0.00 0.00 80 1011.3
20260508161124 32 0.0 0.0 0.00 0.00 0.00 80 1011.6
20260508160622 32 0.0 0.0 0.00 0.00 0.00 80 1011.6
20260508160119 -17 0.0 0.0 0.00 0.00 0.00 1011.6
20260508155616 32 0.0 0.0 0.00 0.00 0.00 80 1011.6
20260508155113 32 0.0 0.0 0.00 0.00 0.00 80 1011.6
20260508154609 32 0.0 0.0 0.00 0.00 0.00 80 1011.3
20260508154106 32 0.0 0.0 0.00 0.00 0.00 80 1011.6
20260508153603 32 0.0 0.0 0.00 0.00 0.00 80 1011.9
20260508153100 32 0.0 0.0 0.00 0.00 0.00 80 1011.9
20260508152557 32 0.0 0.0 0.00 0.00 0.00 80 1011.6
20260508152052 32 0.0 0.0 0.00 0.00 0.00 80 1011.9
20260508151549 32 0.0 0.0 0.00 0.00 0.00 80 1011.6
20260508151046 32 0.0 0.0 0.00 0.00 0.00 80 1011.9
20260508150543 32 0.0 0.0 0.00 0.00 0.00 80 1011.9
20260508150039 32 0.0 0.0 0.00 0.00 0.00 80 1011.9
20260508145536 32 0.0 0.0 0.00 0.00 0.00 81 1011.9
20260508145032 32 0.0 0.0 0.00 0.00 0.00 81 1011.6
20260508144530 32 0.0 0.0 0.00 0.00 0.00 82 1011.6
20260508144027 32 0.0 0.0 0.00 0.00 0.00 82 1011.9
20260508143525 32 0.0 0.0 0.00 0.00 0.00 81 1011.9
20260508143021 32 0.0 0.0 0.00 0.00 0.00 81 1011.9
20260508142518 32 0.0 0.0 0.00 0.00 0.00 81 1011.9
20260508142014 32 0.0 0.0 0.00 0.00 0.00 81 1012.3
20260508141511 32 0.0 0.0 0.00 0.00 0.00 81 1011.9
20260508141009 32 0.0 0.0 0.00 0.00 0.00 80 1011.9
20260508140506 32 0.0 0.0 0.00 0.00 0.00 81 1011.9
20260508140002 32 0.0 0.0 0.00 0.00 0.00 80 1011.9
20260508135458 32 0.0 0.0 0.00 0.00 0.00 80 1011.9
20260508134954 32 0.0 0.0 0.00 0.00 0.00 80 1011.9
20260508134451 32 0.0 0.0 0.00 0.00 0.00 80 1011.9
20260508133948 32 0.0 0.0 0.00 0.00 0.00 80 1011.9
20260508133445 32 0.0 0.0 0.00 0.00 0.00 80 1011.9
20260508132942 32 0.0 0.0 0.00 0.00 0.00 79 1011.9
20260508132440 32 0.0 0.0 0.00 0.00 0.00 79 1011.6
20260508131937 32 0.0 0.0 0.00 0.00 0.00 79 1011.6
20260508131432 33 0.0 0.0 0.00 0.00 0.00 79 1011.3
20260508130929 33 0.0 0.0 0.00 0.00 0.00 79 1011.3
20260508130426 33 0.0 0.0 0.00 0.00 0.00 79 1011.3
20260508125921 33 0.0 0.0 0.00 0.00 0.00 78 1011.3
20260508125418 33 0.0 0.0 0.00 0.00 0.00 78 1011.3
20260508124916 33 0.0 0.0 0.00 0.00 0.00 77 1011.3
20260508124413 33 0.0 0.0 0.00 0.00 0.00 77 1011.3
20260508123911 33 0.0 0.0 0.00 0.00 0.00 76 1011.3
20260508123409 33 0.0 0.0 0.00 0.00 0.00 78 1010.9
20260508122905 33 0.0 0.0 0.00 0.00 0.00 78 1010.9
20260508122403 33 0.0 0.0 0.00 0.00 0.00 77 1010.9
20260508121859 33 0.0 0.0 0.00 0.00 0.00 78 1010.9
20260508121358 33 0.0 0.0 0.00 0.00 0.00 77 1010.6
20260508120855 33 0.0 0.0 0.00 0.00 0.00 78 1010.6
20260508120353 33 0.0 0.0 0.00 0.00 0.00 78 1010.6
20260508115850 33 0.0 0.0 0.00 0.00 0.00 78 1010.6
20260508115347 33 0.0 0.0 0.00 0.00 0.00 78 1010.2
20260508114844 33 0.0 0.0 0.00 0.00 0.00 77 1010.2
20260508114341 33 0.0 0.0 0.00 0.00 0.00 77 1010.2
20260508113838 33 0.0 0.0 0.00 0.00 0.00 77 1009.9
20260508113336 33 0.0 0.0 0.00 0.00 0.00 77 1010.2
20260508112832 33 0.0 0.0 0.00 0.00 0.00 77 1010.2
20260508112329 33 0.0 0.0 0.00 0.00 0.00 76 1009.9
20260508111826 33 0.0 0.0 0.00 0.00 0.00 76 1009.9
20260508111323 33 0.0 0.0 0.00 0.00 0.00 75 1009.9
20260508110820 33 0.0 0.0 0.00 0.00 0.00 76 1009.9
20260508110318 33 0.0 0.0 0.00 0.00 0.00 76 1009.9
20260508105817 33 0.0 0.0 0.00 0.00 0.00 75 1009.9
20260508105314 33 0.0 0.0 0.00 0.00 0.00 75 1009.6
20260508104811 33 0.0 0.0 0.00 0.00 0.00 75 1009.6
20260508104308 33 0.0 0.0 0.00 0.00 0.00 76 1009.2
20260508103805 33 0.0 0.0 0.00 0.00 0.00 75 1009.6
20260508103302 33 0.0 0.0 0.00 0.00 0.00 75 1009.2
20260508102800 33 0.0 0.0 0.00 0.00 0.00 75 1009.2
20260508102257 33 0.0 0.0 0.00 0.00 0.00 75 1009.2
20260508101754 33 0.0 0.0 0.00 0.00 0.00 76 1009.6
20260508101252 34 0.0 0.0 0.00 0.00 0.00 75 1009.2
20260508100749 34 0.0 0.0 0.00 0.00 0.00 75 1009.2
20260508100247 34 0.0 0.0 0.00 0.00 0.00 75 1008.9
20260508095743 34 0.0 0.0 0.00 0.00 0.00 75 1008.9
20260508095241 34 0.0 0.0 0.00 0.00 0.00 75 1008.9
20260508094737 34 0.0 0.0 0.00 0.00 0.00 76 1008.6
20260508094235 34 0.0 0.0 0.00 0.00 0.00 75 1008.6
20260508093732 34 0.0 0.0 0.00 0.00 0.00 75 1008.6
20260508093229 34 0.0 0.0 0.00 0.00 0.00 75 1008.6
20260508092726 34 0.0 0.0 0.00 0.00 0.00 75 1008.6
20260508092224 35 0.0 0.0 0.00 0.00 0.00 75 1008.2
20260508091722 35 0.0 0.0 0.00 0.00 0.00 75 1008.2
20260508091218 35 0.0 0.0 0.00 0.00 0.00 75 1008.2
20260508090717 35 0.0 0.0 0.00 0.00 0.00 74 1008.2
20260508090214 35 0.0 0.0 0.00 0.00 0.00 74 1008.6
20260508085709 35 0.0 0.0 0.00 0.00 0.00 73 1008.2
20260508085207 35 0.0 0.0 0.00 0.00 0.00 72 1008.2
20260508084703 35 0.0 0.0 0.00 0.00 0.00 71 1008.2
20260508084201 35 0.0 0.0 0.00 0.00 0.00 71 1008.2
20260508083658 35 0.0 0.0 0.00 0.00 0.00 70 1008.2
20260508083155 35 0.0 0.0 0.00 0.00 0.00 70 1008.2
20260508082650 35 0.0 0.0 0.00 0.00 0.00 70 1007.9
20260508082147 35 0.0 0.0 0.00 0.00 0.00 69 1007.9
20260508081645 35 0.0 0.0 0.00 0.00 0.00 70 1007.9
20260508081141 35 0.0 0.0 0.00 0.00 0.00 70 1007.9
20260508080639 35 0.0 0.0 0.00 0.00 0.00 69 1007.9
20260508080137 35 0.0 0.0 0.00 0.00 0.00 69 1007.9
20260508075633 35 0.0 0.0 0.00 0.00 0.00 69 1007.9